Location: ??
(35.1715°N, 139.6450°E)
Time: 20:44:03
(UTC+00:00)

IRIDIUM 106 - Pass Details

Date: 05 August 2024
Orbit: 776 x 779 km, 86.4° (Epoch: 18 September)

Event Time Altitude Azimuth Distance (km) Brightness Sun altitude
Exits shadow 18:48:32 - 187° (S) 2,930 6.9 -12.9°
Reaches altitude 10° 18:50:05 10° 189° (S) 2,322 6.4 -12.6°
Maximum altitude 18:55:16 69° 273° (W) 833 4.3 -11.7°
Drops below altitude 10° 19:00:29 10° 357° (N) 2,338 7.2 -10.8°
Sets 19:02:51 0° 359° (N) 3,269 8.0 -10.3°
